West Palm Beach, FL

1:14 AM EDT on August 23, 2019 (GMT -0400)
Palm Beach International

Weather History for KPBI - June, 2019

Change the Weather History Date:

Friday, June 14, 2019

  Actual Average Record
Temperature  
Mean Temperature 82 °F 81 °F  
Max Temperature 87 °F 88 °F 98 °F (2011)
Min Temperature 76 °F 74 °F 60 °F (1920)
Degree Days  
Heating Degree Days 0 0  
Month to date heating degree days 0 0  
Since 1 June heating degree days 0 0  
Since 1 July heating degree days 144 233  
Cooling Degree Days 17 16  
Month to date cooling degree days 267 223  
Year to date cooling degree days 1668 1332  
Since 1 June cooling degree days 267 223  
Growing Degree Days 31 (Base 50)    
Moisture  
Dew Point 73 °F    
Average Humidity 78    
Maximum Humidity 94    
Minimum Humidity 61    
Precipitation  
Precipitation 0.06 in 0.29 in 3.55 in (1979)
Month to date precipitation 3.72 3.84  
Year to date precipitation 24.73 22.55  
Snow  
Snow 0.00 in - - ()
Month to date snowfall 0.0  
Since 1 June snowfall 0.0  
Since 1 July snowfall 0.0  
Snow Depth 0.00 in    
Sea Level Pressure  
Sea Level Pressure 30.08 in    
Wind  
Wind Speed 7 mph (NE)    
Max Wind Speed 17 mph    
Max Gust Speed 22 mph    
Visibility 10 miles    
Events Rain , Thunderstorm    
T = Trace of Precipitation, MM = Missing Value Source: NWS Daily Summary

Daily Weather History Graph

Daily Weather History Graph

Search for Another Location

Airport or City:

Astronomy

Jun. 14, 2019 Rise Set
Actual Time 6:26 AM EDT 8:14 PM EDT
Civil Twilight 6:00 AM EDT 8:41 PM EDT
Nautical Twilight 5:28 AM EDT 9:12 PM EDT
Astronomical Twilight 4:55 AM EDT 9:46 PM EDT
Moon 5:49 PM EDT (6/14) 4:25 AM EDT (6/14)
Length of Visible Light 14h 40m
Length of Day
13h 48m
Waxing Gibbous, 92% of the Moon is Illuminated
Jun 14
Waxing Gibbous
Jun 17
Full
Jun 25
Last Quarter
Jul 2
New
Jul 9
First Quarter

Hourly Weather History & Observations

Time (EDT) Temp. Heat Index Dew Point Humidity Pressure Visibility Wind Dir Wind Speed Gust Speed Precip Events Conditions
12:53 AM 77.0 °F - 73.0 °F 88% 30.09 in 10.0 mi SSW 4.6 mph - N/A   Overcast
1:53 AM 77.0 °F - 73.0 °F 88% 30.07 in 10.0 mi SW 6.9 mph - N/A   Overcast
2:53 AM 77.0 °F - 73.0 °F 88% 30.05 in 10.0 mi Calm Calm - N/A   Overcast
3:53 AM 75.9 °F - 73.0 °F 91% 30.05 in 10.0 mi West 5.8 mph - N/A   Overcast
4:53 AM 75.9 °F - 73.0 °F 91% 30.05 in 10.0 mi WNW 4.6 mph - N/A   Mostly Cloudy
5:53 AM 75.9 °F - 73.0 °F 91% 30.05 in 10.0 mi North 3.5 mph - N/A   Mostly Cloudy
6:53 AM 77.0 °F - 73.0 °F 88% 30.07 in 10.0 mi NNW 3.5 mph - N/A   Overcast
7:53 AM 78.1 °F - 73.0 °F 84% 30.07 in 10.0 mi NW 3.5 mph - N/A   Mostly Cloudy
8:53 AM 81.0 °F 85.8 °F 73.0 °F 77% 30.09 in 10.0 mi North 6.9 mph - N/A   Mostly Cloudy
9:53 AM 84.0 °F 90.2 °F 73.0 °F 69% 30.10 in 10.0 mi Calm Calm - N/A   Mostly Cloudy
10:27 AM 84.9 °F 92.1 °F 73.9 °F 69% 30.11 in 10.0 mi North 4.6 mph - N/A   Mostly Cloudy
10:53 AM 84.9 °F 92.1 °F 73.9 °F 69% 30.10 in 10.0 mi Calm Calm - N/A   Mostly Cloudy
11:00 AM 84.0 °F 90.2 °F 73.0 °F 69% 30.10 in 10.0 mi Calm Calm - N/A   Mostly Cloudy
11:53 AM 86.0 °F 93.8 °F 73.9 °F 67% 30.10 in 10.0 mi Calm Calm - N/A   Scattered Clouds
12:02 PM 86.0 °F 93.0 °F 73.0 °F 65% 30.10 in 10.0 mi Calm Calm - N/A   Mostly Cloudy
12:42 PM 84.9 °F 92.1 °F 73.9 °F 69% 30.10 in 10.0 mi NE 10.4 mph - N/A   Mostly Cloudy
12:53 PM 86.0 °F 93.8 °F 73.9 °F 67% 30.09 in 10.0 mi NE 11.5 mph - N/A   Mostly Cloudy
1:53 PM 84.0 °F 90.2 °F 73.0 °F 69% 30.09 in 10.0 mi ENE 13.8 mph - N/A   Mostly Cloudy
2:17 PM 82.9 °F 88.8 °F 73.0 °F 72% 30.09 in 7.0 mi ENE 17.3 mph - N/A Rain Light Rain
2:25 PM 82.9 °F 90.2 °F 75.2 °F 77% 30.10 in 7.0 mi ENE 15.0 mph - 0.00 in Rain , Thunderstorm Light Thunderstorms and Rain
2:53 PM 81.0 °F 86.2 °F 73.9 °F 79% 30.08 in 10.0 mi NE 6.9 mph - 0.05 in Rain , Thunderstorm Light Thunderstorms and Rain
3:11 PM 82.9 °F 88.8 °F 73.0 °F 72% 30.08 in 10.0 mi NE 9.2 mph - 0.01 in   Mostly Cloudy
3:42 PM 84.9 °F 91.4 °F 73.0 °F 67% 30.07 in 10.0 mi NE 11.5 mph - 0.01 in   Mostly Cloudy
3:53 PM 84.9 °F 90.7 °F 72.0 °F 65% 30.06 in 10.0 mi NE 13.8 mph - 0.01 in   Mostly Cloudy
4:53 PM 86.0 °F 91.5 °F 71.1 °F 61% 30.06 in 10.0 mi NE 15.0 mph - N/A   Mostly Cloudy
5:53 PM 84.9 °F 89.4 °F 70.0 °F 61% 30.06 in 10.0 mi NE 11.5 mph - N/A   Mostly Cloudy
6:53 PM 84.0 °F 90.2 °F 73.0 °F 69% 30.08 in 10.0 mi East 11.5 mph - N/A   Mostly Cloudy
7:53 PM 82.9 °F 88.8 °F 73.0 °F 72% 30.08 in 10.0 mi East 10.4 mph - N/A   Mostly Cloudy
8:53 PM 82.0 °F 87.4 °F 73.0 °F 74% 30.09 in 10.0 mi East 10.4 mph - N/A   Mostly Cloudy
9:53 PM 82.0 °F 86.7 °F 72.0 °F 71% 30.09 in 10.0 mi ESE 6.9 mph - N/A   Mostly Cloudy